Flag for Estonia Weather past 2 weeks in Pärnu, Estonia

Now
32 °F

Clear.


Feels Like: 29 °F
Forecast: 31 / 38 °F
Wind: 3 mph from Southeast

Location: Pjarnu

Current Time: Oct 24, 2014 at 9:08:49 PM

Latest Report: Oct 24, 2014 at 8:00 PM


Visibility: 31 mi

Pressure: 30.48 "Hg

Humidity: 51%

Dew point: 16 °F

Location of PärnuLocation

Historic Weather in Pärnu — Graph

°F

Pärnu temperature yesterday

Maximum temperature yesterday: 30 °F (at 4:00 PM)
Minimum temperature yesterday: 20 °F (at 8:00 AM)
Average temperature yesterday: 24 °F

Past Weeks' High & Low Weather Summary

 TemperatureHumidityPressure
High57 °F (Oct 11, 2:00 PM)100% (Oct 11, 8:00 PM)30.59 "Hg (Oct 11, 8:00 PM)
Low20 °F (Oct 23, 8:00 AM)31% (Oct 24, 3:00 PM)29.32 "Hg (Oct 20, 8:00 AM)
Average42 °F84%29.97 "Hg
* Reported Oct 9 7:00 PM — Oct 24 7:00 PM, Pärnu, Weather by CustomWeather, © 2014

Note: Actual official high and low records may vary slightly from our data, if they occured in-between our weather recording intervals... More about our weather records

Advertising

Pärnu weather history for previous 24 hours

 ConditionsComfort  
Time TempWeatherWind HumidityBarometerVisibility
7:00 PM
Oct 24
32 °FClear.3 mph47%30.48 "Hg22 mi
6:00 PM34 °FPassing clouds.3 mph41%30.49 "Hg22 mi
5:00 PM35 °FSunny.5 mph35%30.51 "Hg31 mi
4:00 PM36 °FScattered clouds.5 mph33%30.53 "Hg31 mi
3:00 PM35 °FPartly sunny.7 mph31%30.54 "Hg28 mi
2:00 PM34 °FSunny.6 mph35%30.56 "Hg28 mi
1:00 PM32 °FPassing clouds.5 mph40%30.57 "Hg28 mi
12:00 PM28 °FPartly sunny.5 mph49%30.58 "Hg28 mi
11:00 AM25 °FPartly sunny.5 mph58%30.59 "Hg31 mi
10:00 AM23 °FPartly sunny.5 mph63%30.59 "Hg28 mi
9:00 AM22 °FPartly sunny.3 mph66%30.59 "Hg28 mi
8:00 AM22 °FOvercast.5 mph68%30.58 "Hg31 mi
7:00 AM21 °FOvercast.5 mph67%30.58 "Hg31 mi
6:00 AM21 °FPassing clouds.3 mph67%30.58 "Hg31 mi
5:00 AM22 °FOvercast.3 mph64%30.58 "Hg31 mi
4:00 AM22 °FPassing clouds.3 mph64%30.58 "Hg31 mi
3:00 AM22 °FPassing clouds.5 mph63%30.59 "Hg31 mi
2:00 AM21 °FClear.1 mph63%30.59 "Hg31 mi
1:00 AM22 °FClear.2 mph62%30.59 "Hg31 mi
12:00 AM21 °FClear.3 mph63%30.59 "Hg31 mi
11:00 PM
Oct 23
22 °FClear.3 mph65%30.58 "Hg31 mi
10:00 PM22 °FClear.3 mph68%30.57 "Hg31 mi
9:00 PM23 °FClear.3 mph69%30.55 "Hg31 mi
Weather by CustomWeather, © 2014

See weather overviewHow to use our weather pages